Time,TemperatureF,DewpointF,PressureIn,WindDirection,WindDirectionDegrees,WindSpeedMPH,WindSpeedGustMPH,Humidity,HourlyPrecipIn,Conditions,Clouds,dailyrainin,SoftwareType,DateUTC
2013-02-10 00:00:00,14.2,9.4,29.62,ENE,60,6.3,6.3,81,0.00,,CLR,0.00,VWS V14.01,2013-02-10 05:00:00,
2013-02-10 00:06:00,14.2,9.4,29.62,North,1,8.1,8.1,81,0.00,,BKN120,0.00,VWS V14.01,2013-02-10 05:06:00,
2013-02-10 00:11:00,14.2,9.4,29.62,NNW,344,0.0,4.0,81,0.00,,BKN120,0.00,VWS V14.01,2013-02-10 05:11:00,
2013-02-10 00:16:00,14.2,9.4,29.62,NW,315,0.0,0.0,81,0.00,,BKN120,0.00,VWS V14.01,2013-02-10 05:16:00,
2013-02-10 00:21:00,14.2,9.4,29.62,North,357,0.0,0.0,81,0.00,,BKN120,0.00,VWS V14.01,2013-02-10 05:21:00,
2013-02-10 00:26:00,14.2,9.4,29.62,WNW,295,0.0,0.0,81,0.00,,BKN120,0.00,VWS V14.01,2013-02-10 05:26:00,
2013-02-10 00:31:00,14.4,9.6,29.62,NNW,340,0.0,0.0,81,0.00,,BKN120,0.00,VWS V14.01,2013-02-10 05:31:00,
2013-02-10 00:36:00,14.5,9.8,29.62,NNW,331,0.0,0.0,81,0.00,,BKN120,0.00,VWS V14.01,2013-02-10 05:36:00,
2013-02-10 00:41:00,14.5,9.8,29.62,NE,50,8.1,8.1,81,0.00,,BKN120,0.00,VWS V14.01,2013-02-10 05:41:00,
2013-02-10 00:46:00,14.9,9.9,29.62,NNW,333,6.3,6.3,80,0.00,,BKN120,0.00,VWS V14.01,2013-02-10 05:46:00,
2013-02-10 00:51:00,15.1,10.0,29.62,NNE,26,6.3,6.3,80,0.00,,BKN120,0.00,VWS V14.01,2013-02-10 05:51:00,
2013-02-10 00:56:00,15.1,10.3,29.62,North,8,0.0,0.0,81,0.00,,BKN120,0.00,VWS V14.01,2013-02-10 05:56:00,
2013-02-10 01:01:00,15.1,10.3,29.62,NNW,344,11.6,11.6,81,0.00,,CLR,0.00,VWS V14.01,2013-02-10 06:01:00,
2013-02-10 01:06:00,15.1,10.3,29.62,NNE,22,7.2,7.2,81,0.00,,CLR,0.00,VWS V14.01,2013-02-10 06:06:00,
2013-02-10 01:12:00,15.1,10.3,29.62,West,269,10.7,10.7,81,0.00,,CLR,0.00,VWS V14.01,2013-02-10 06:12:00,
2013-02-10 01:17:00,15.1,10.3,29.62,WNW,284,5.4,5.4,81,0.00,,CLR,0.00,VWS V14.01,2013-02-10 06:17:00,
2013-02-10 01:22:00,15.1,10.3,29.62,North,357,0.0,0.0,81,0.00,,CLR,0.00,VWS V14.01,2013-02-10 06:22:00,
2013-02-10 01:27:00,15.1,10.3,29.62,NNW,344,4.5,4.5,81,0.00,,CLR,0.00,VWS V14.01,2013-02-10 06:27:00,
2013-02-10 01:32:00,15.1,10.3,29.65,North,353,0.0,0.0,81,0.00,,CLR,0.00,VWS V14.01,2013-02-10 06:32:00,
2013-02-10 01:37:00,15.1,10.3,29.65,North,11,7.2,7.2,81,0.00,,CLR,0.00,VWS V14.01,2013-02-10 06:37:00,
2013-02-10 01:42:00,15.1,10.3,29.65,North,10,0.0,0.0,81,0.00,,CLR,0.00,VWS V14.01,2013-02-10 06:42:00,
2013-02-10 01:47:00,15.1,10.3,29.65,North,357,4.5,4.5,81,0.00,,CLR,0.00,VWS V14.01,2013-02-10 06:47:00,
2013-02-10 01:52:00,15.1,10.3,29.65,NNW,335,0.0,3.6,81,0.00,,CLR,0.00,VWS V14.01,2013-02-10 06:52:00,
2013-02-10 01:57:00,15.1,10.3,29.65,North,0,0.0,0.0,81,0.00,,CLR,0.00,VWS V14.01,2013-02-10 06:57:00,
2013-02-10 02:02:00,15.1,10.3,29.65,NW,314,4.5,4.5,81,0.00,,CLR,0.00,VWS V14.01,2013-02-10 07:02:00,
2013-02-10 02:07:00,14.9,10.1,29.65,NW,316,0.0,3.6,81,0.00,,CLR,0.00,VWS V14.01,2013-02-10 07:07:00,
2013-02-10 02:12:00,15.1,10.3,29.65,NNW,345,0.0,0.0,81,0.00,,CLR,0.00,VWS V14.01,2013-02-10 07:12:00,
2013-02-10 02:17:00,15.1,10.3,29.65,North,0,0.0,0.0,81,0.00,,CLR,0.00,VWS V14.01,2013-02-10 07:17:00,
2013-02-10 02:23:00,15.1,10.3,29.65,North,0,0.0,0.0,81,0.00,,CLR,0.00,VWS V14.01,2013-02-10 07:23:00,
2013-02-10 02:28:00,15.1,10.3,29.65,NNW,327,0.0,0.0,81,0.00,,CLR,0.00,VWS V14.01,2013-02-10 07:28:00,
2013-02-10 02:33:00,15.1,10.3,29.65,NW,324,0.0,0.0,81,0.00,,CLR,0.00,VWS V14.01,2013-02-10 07:33:00,
2013-02-10 02:38:00,15.1,10.3,29.65,North,0,0.0,4.9,81,0.00,,CLR,0.00,VWS V14.01,2013-02-10 07:38:00,
2013-02-10 02:43:00,14.9,9.9,29.65,NNE,13,0.0,0.0,80,0.00,,CLR,0.00,VWS V14.01,2013-02-10 07:43:00,
2013-02-10 02:48:00,14.9,9.9,29.65,WNW,299,0.0,2.2,80,0.00,,CLR,0.00,VWS V14.01,2013-02-10 07:48:00,
2013-02-10 02:53:00,14.9,9.9,29.65,NNE,24,4.5,4.5,80,0.00,,CLR,0.00,VWS V14.01,2013-02-10 07:53:00,
2013-02-10 02:58:00,14.7,9.7,29.65,ENE,59,5.4,5.4,80,0.00,,CLR,0.00,VWS V14.01,2013-02-10 07:58:00,
2013-02-10 03:03:00,14.7,9.7,29.68,NNW,343,0.0,0.0,80,0.00,,CLR,0.00,VWS V14.01,2013-02-10 08:03:00,
2013-02-10 03:08:00,14.5,9.5,29.68,NNE,25,6.3,6.3,80,0.00,,CLR,0.00,VWS V14.01,2013-02-10 08:08:00,
2013-02-10 03:13:00,14.4,9.3,29.68,NW,318,0.0,0.0,80,0.00,,CLR,0.00,VWS V14.01,2013-02-10 08:13:00,
2013-02-10 03:18:00,14.0,9.0,29.68,NNW,329,0.0,0.0,80,0.00,,CLR,0.00,VWS V14.01,2013-02-10 08:18:00,
2013-02-10 03:23:00,13.6,8.6,29.68,NNE,20,0.0,0.0,80,0.00,,CLR,0.00,VWS V14.01,2013-02-10 08:23:00,
2013-02-10 03:28:00,13.5,8.4,29.68,North,0,0.0,0.0,80,0.00,,CLR,0.00,VWS V14.01,2013-02-10 08:28:00,
2013-02-10 03:33:00,13.3,8.3,29.68,NNW,345,0.0,0.0,80,0.00,,CLR,0.00,VWS V14.01,2013-02-10 08:33:00,
2013-02-10 03:39:00,12.9,7.9,29.68,NNE,25,0.0,0.0,80,0.00,,CLR,0.00,VWS V14.01,2013-02-10 08:39:00,
2013-02-10 03:44:00,12.6,7.6,29.68,NNE,22,0.0,0.0,80,0.00,,CLR,0.00,VWS V14.01,2013-02-10 08:44:00,
2013-02-10 03:49:00,12.6,7.6,29.68,West,270,8.1,8.1,80,0.00,,CLR,0.00,VWS V14.01,2013-02-10 08:49:00,
2013-02-10 03:54:00,12.4,7.4,29.68,NE,54,0.0,0.0,80,0.00,,CLR,0.00,VWS V14.01,2013-02-10 08:54:00,
2013-02-10 03:59:00,12.2,7.2,29.68,NNW,332,0.0,0.0,80,0.00,,CLR,0.00,VWS V14.01,2013-02-10 08:59:00,
2013-02-10 04:04:00,12.2,7.2,29.68,NNW,331,0.0,0.0,80,0.00,,CLR,0.00,VWS V14.01,2013-02-10 09:04:00,
2013-02-10 04:09:00,12.0,7.1,29.68,North,357,4.5,4.5,80,0.00,,CLR,0.00,VWS V14.01,2013-02-10 09:09:00,
2013-02-10 04:14:00,12.0,7.1,29.68,North,4,0.0,0.0,80,0.00,,CLR,0.00,VWS V14.01,2013-02-10 09:14:00,
2013-02-10 04:19:00,11.8,6.9,29.71,NNE,17,0.0,0.0,80,0.00,,CLR,0.00,VWS V14.01,2013-02-10 09:19:00,
2013-02-10 04:24:00,11.8,6.9,29.71,North,0,0.0,0.0,80,0.00,,CLR,0.00,VWS V14.01,2013-02-10 09:24:00,
2013-02-10 04:29:00,11.7,6.7,29.71,NW,322,8.1,8.1,80,0.00,,CLR,0.00,VWS V14.01,2013-02-10 09:29:00,
2013-02-10 04:34:00,11.5,6.5,29.71,NNW,333,0.0,0.0,80,0.00,,CLR,0.00,VWS V14.01,2013-02-10 09:34:00,
2013-02-10 04:39:00,11.3,6.3,29.71,NW,321,0.0,0.0,80,0.00,,CLR,0.00,VWS V14.01,2013-02-10 09:39:00,
2013-02-10 04:44:00,11.3,6.3,29.71,NNW,337,0.0,0.0,80,0.00,,CLR,0.00,VWS V14.01,2013-02-10 09:44:00,
2013-02-10 04:50:00,11.1,6.2,29.71,North,4,0.0,0.0,80,0.00,,CLR,0.00,VWS V14.01,2013-02-10 09:50:00,
2013-02-10 04:55:00,11.3,6.3,29.71,NW,320,8.1,8.1,80,0.00,,CLR,0.00,VWS V14.01,2013-02-10 09:55:00,
2013-02-10 05:00:00,11.3,6.3,29.71,NW,320,0.0,2.2,80,0.00,,CLR,0.00,VWS V14.01,2013-02-10 10:00:00,
2013-02-10 05:05:00,11.3,6.3,29.71,NW,317,6.3,6.3,80,0.00,,CLR,0.00,VWS V14.01,2013-02-10 10:05:00,
2013-02-10 05:10:00,11.3,6.3,29.71,North,2,0.0,0.0,80,0.00,,CLR,0.00,VWS V14.01,2013-02-10 10:10:00,
2013-02-10 05:15:00,11.1,6.2,29.71,NNW,341,0.0,0.0,80,0.00,,CLR,0.00,VWS V14.01,2013-02-10 10:15:00,
2013-02-10 05:20:00,11.1,6.2,29.74,NNW,336,0.0,0.0,80,0.00,,CLR,0.00,VWS V14.01,2013-02-10 10:20:00,
2013-02-10 05:25:00,10.9,6.0,29.74,North,4,0.0,3.6,80,0.00,,CLR,0.00,VWS V14.01,2013-02-10 10:25:00,
2013-02-10 05:30:00,10.9,6.0,29.74,NNW,339,0.0,0.0,80,0.00,,CLR,0.00,VWS V14.01,2013-02-10 10:30:00,
2013-02-10 05:35:00,10.8,5.8,29.74,NNW,332,0.0,0.0,80,0.00,,CLR,0.00,VWS V14.01,2013-02-10 10:35:00,
2013-02-10 05:40:00,10.8,5.8,29.74,North,8,0.0,0.0,80,0.00,,CLR,0.00,VWS V14.01,2013-02-10 10:40:00,
2013-02-10 05:45:00,10.8,5.8,29.74,NNE,18,0.0,0.0,80,0.00,,CLR,0.00,VWS V14.01,2013-02-10 10:45:00,
2013-02-10 05:50:00,10.9,6.0,29.74,North,353,5.4,5.4,80,0.00,,CLR,0.00,VWS V14.01,2013-02-10 10:50:00,
2013-02-10 05:55:00,10.8,5.8,29.74,NNE,15,0.0,4.0,80,0.00,,CLR,0.00,VWS V14.01,2013-02-10 10:55:00,
2013-02-10 06:01:00,10.8,5.8,29.74,WNW,296,0.0,5.4,80,0.00,,CLR,0.00,VWS V14.01,2013-02-10 11:01:00,
2013-02-10 06:06:00,10.6,5.6,29.74,WNW,290,0.0,0.0,80,0.00,,CLR,0.00,VWS V14.01,2013-02-10 11:06:00,
2013-02-10 06:11:00,10.4,5.5,29.74,North,353,0.0,0.0,80,0.00,,CLR,0.00,VWS V14.01,2013-02-10 11:11:00,
2013-02-10 06:16:00,10.2,5.3,29.74,West,261,0.0,0.0,80,0.00,,CLR,0.00,VWS V14.01,2013-02-10 11:16:00,
2013-02-10 06:21:00,10.2,5.3,29.74,ENE,67,0.0,0.0,80,0.00,,CLR,0.00,VWS V14.01,2013-02-10 11:21:00,
2013-02-10 06:26:00,10.4,5.5,29.74,NNE,31,0.0,0.0,80,0.00,,CLR,0.00,VWS V14.01,2013-02-10 11:26:00,
2013-02-10 06:31:00,10.4,5.5,29.74,NNE,29,0.0,0.0,80,0.00,,CLR,0.00,VWS V14.01,2013-02-10 11:31:00,
2013-02-10 06:36:00,10.4,5.5,29.77,ENE,57,0.0,0.0,80,0.00,,CLR,0.00,VWS V14.01,2013-02-10 11:36:00,
2013-02-10 06:41:00,10.2,5.3,29.77,NNW,334,0.0,0.0,80,0.00,,CLR,0.00,VWS V14.01,2013-02-10 11:41:00,
2013-02-10 06:46:00,10.0,5.1,29.77,NNE,23,0.0,0.0,80,0.00,,CLR,0.00,VWS V14.01,2013-02-10 11:46:00,
2013-02-10 06:51:00,10.2,5.3,29.77,NW,312,0.0,0.0,80,0.00,,CLR,0.00,VWS V14.01,2013-02-10 11:51:00,
2013-02-10 06:56:00,10.2,5.3,29.77,SW,229,0.0,0.0,80,0.00,,CLR,0.00,VWS V14.01,2013-02-10 11:56:00,
2013-02-10 07:01:00,10.0,5.1,29.77,SW,216,6.3,6.3,80,0.00,,CLR,0.00,VWS V14.01,2013-02-10 12:01:00,
2013-02-10 07:06:00,10.2,5.3,29.77,North,3,4.5,4.5,80,0.00,,CLR,0.00,VWS V14.01,2013-02-10 12:06:00,
2013-02-10 07:12:00,10.2,5.3,29.77,North,0,0.0,2.7,80,0.00,,CLR,0.00,VWS V14.01,2013-02-10 12:12:00,
2013-02-10 07:17:00,10.6,5.6,29.77,North,353,0.0,0.0,80,0.00,,CLR,0.00,VWS V14.01,2013-02-10 12:17:00,
2013-02-10 07:22:00,10.8,5.8,29.77,North,3,0.0,0.0,80,0.00,,CLR,0.00,VWS V14.01,2013-02-10 12:22:00,
2013-02-10 07:27:00,10.8,5.8,29.77,NW,325,0.0,0.0,80,0.00,,CLR,0.00,VWS V14.01,2013-02-10 12:27:00,
2013-02-10 07:32:00,10.9,6.0,29.77,West,281,0.0,0.0,80,0.00,,CLR,0.00,VWS V14.01,2013-02-10 12:32:00,
2013-02-10 07:37:00,11.1,6.2,29.80,NE,46,0.0,0.0,80,0.00,,CLR,0.00,VWS V14.01,2013-02-10 12:37:00,
2013-02-10 07:42:00,11.5,6.5,29.80,NNE,19,0.0,0.0,80,0.00,,CLR,0.00,VWS V14.01,2013-02-10 12:42:00,
2013-02-10 07:47:00,11.7,6.7,29.80,NW,320,4.5,4.5,80,0.00,,CLR,0.00,VWS V14.01,2013-02-10 12:47:00,
2013-02-10 07:52:00,11.7,6.7,29.80,ESE,105,0.0,0.0,80,0.00,,CLR,0.00,VWS V14.01,2013-02-10 12:52:00,
2013-02-10 07:57:00,11.7,6.7,29.80,NNW,330,0.0,2.2,80,0.00,,CLR,0.00,VWS V14.01,2013-02-10 12:57:00,
2013-02-10 08:02:00,11.7,6.7,29.80,North,0,0.0,3.1,80,0.00,,CLR,0.00,VWS V14.01,2013-02-10 13:02:00,
2013-02-10 08:07:00,11.8,6.9,29.80,WNW,288,0.0,0.0,80,0.00,,CLR,0.00,VWS V14.01,2013-02-10 13:07:00,
2013-02-10 08:12:00,12.0,7.1,29.80,NW,320,0.0,0.0,80,0.00,,CLR,0.00,VWS V14.01,2013-02-10 13:12:00,
2013-02-10 08:18:00,12.2,7.2,29.80,WNW,292,0.0,0.0,80,0.00,,CLR,0.00,VWS V14.01,2013-02-10 13:18:00,
2013-02-10 08:23:00,12.7,7.8,29.80,NW,313,0.0,0.0,80,0.00,,CLR,0.00,VWS V14.01,2013-02-10 13:23:00,
2013-02-10 08:28:00,12.9,7.9,29.80,NNW,333,0.0,0.0,80,0.00,,CLR,0.00,VWS V14.01,2013-02-10 13:28:00,
2013-02-10 08:33:00,13.3,8.3,29.80,West,263,11.6,11.6,80,0.00,,CLR,0.00,VWS V14.01,2013-02-10 13:33:00,
2013-02-10 08:38:00,13.6,8.6,29.80,NNW,339,0.0,0.0,80,0.00,,CLR,0.00,VWS V14.01,2013-02-10 13:38:00,
2013-02-10 08:43:00,13.8,8.8,29.80,NW,322,0.0,0.0,80,0.00,,CLR,0.00,VWS V14.01,2013-02-10 13:43:00,
2013-02-10 08:48:00,14.2,8.6,29.83,NNE,19,0.0,0.0,78,0.00,,CLR,0.00,VWS V14.01,2013-02-10 13:48:00,
2013-02-10 08:53:00,14.4,8.8,29.83,NNW,334,0.0,0.0,78,0.00,,CLR,0.00,VWS V14.01,2013-02-10 13:53:00,
2013-02-10 08:58:00,14.5,9.2,29.83,NE,46,0.0,0.0,79,0.00,,CLR,0.00,VWS V14.01,2013-02-10 13:58:00,
2013-02-10 09:03:00,14.9,9.6,29.83,NE,43,0.0,0.0,79,0.00,,CLR,0.00,VWS V14.01,2013-02-10 14:03:00,
2013-02-10 09:08:00,15.3,9.9,29.83,WNW,287,0.0,0.0,79,0.00,,CLR,0.00,VWS V14.01,2013-02-10 14:08:00,
2013-02-10 09:14:00,15.4,10.1,29.83,NE,37,6.3,6.3,79,0.00,,CLR,0.00,VWS V14.01,2013-02-10 14:14:00,
2013-02-10 09:19:00,15.8,10.5,29.83,NNW,334,0.0,2.7,79,0.00,,CLR,0.00,VWS V14.01,2013-02-10 14:19:00,
2013-02-10 09:24:00,16.0,10.6,29.83,NNW,329,5.4,5.4,79,0.00,,CLR,0.00,VWS V14.01,2013-02-10 14:24:00,
2013-02-10 09:29:00,16.5,11.2,29.83,North,357,0.0,0.0,79,0.00,,CLR,0.00,VWS V14.01,2013-02-10 14:29:00,
2013-02-10 09:34:00,16.9,11.8,29.83,North,0,0.0,0.0,80,0.00,,CLR,0.00,VWS V14.01,2013-02-10 14:34:00,
2013-02-10 09:39:00,17.2,12.1,29.83,NNW,339,0.0,0.0,80,0.00,,CLR,0.00,VWS V14.01,2013-02-10 14:39:00,
2013-02-10 09:44:00,17.8,12.1,29.83,NW,305,7.2,7.2,78,0.00,,CLR,0.00,VWS V14.01,2013-02-10 14:44:00,
2013-02-10 09:49:00,18.3,12.6,29.85,NNW,344,0.0,0.0,78,0.00,,CLR,0.00,VWS V14.01,2013-02-10 14:49:00,
2013-02-10 09:54:00,18.7,13.3,29.85,NNE,23,10.7,10.7,79,0.00,,CLR,0.00,VWS V14.01,2013-02-10 14:54:00,
2013-02-10 10:00:00,19.0,13.9,29.85,NNE,21,0.0,2.2,80,0.00,,CLR,0.00,VWS V14.01,2013-02-10 15:00:00,
2013-02-10 10:05:00,19.2,13.2,29.83,North,5,6.3,6.3,77,0.00,,CLR,0.00,VWS V14.01,2013-02-10 15:05:00,
2013-02-10 10:10:00,19.6,13.9,29.83,NNW,345,0.0,2.2,78,0.00,,CLR,0.00,VWS V14.01,2013-02-10 15:10:00,
2013-02-10 10:15:00,19.9,13.9,29.83,North,0,8.1,8.1,77,0.00,,CLR,0.00,VWS V14.01,2013-02-10 15:15:00,
2013-02-10 10:20:00,20.3,14.6,29.85,NNW,331,9.8,9.8,78,0.00,,CLR,0.00,VWS V14.01,2013-02-10 15:20:00,
2013-02-10 10:25:00,20.7,15.2,29.85,NNE,18,0.0,2.7,79,0.00,,CLR,0.00,VWS V14.01,2013-02-10 15:25:00,
2013-02-10 10:30:00,21.2,16.0,29.85,North,3,0.0,2.7,80,0.00,,CLR,0.00,VWS V14.01,2013-02-10 15:30:00,
2013-02-10 10:35:00,21.4,15.0,29.85,North,353,16.1,16.1,76,0.00,,CLR,0.00,VWS V14.01,2013-02-10 15:35:00,
2013-02-10 10:40:00,21.9,15.8,29.85,NW,320,0.0,0.0,77,0.00,,CLR,0.00,VWS V14.01,2013-02-10 15:40:00,
2013-02-10 10:46:00,22.1,16.6,29.85,NNE,32,7.2,7.2,79,0.00,,CLR,0.00,VWS V14.01,2013-02-10 15:46:00,
2013-02-10 10:51:00,22.3,16.5,29.85,NNE,12,0.0,3.6,78,0.00,,CLR,0.00,VWS V14.01,2013-02-10 15:51:00,
2013-02-10 10:56:00,22.6,15.9,29.85,NNW,344,5.4,5.4,75,0.00,,CLR,0.00,VWS V14.01,2013-02-10 15:56:00,
2013-02-10 11:01:00,23.0,16.0,29.85,NNW,332,10.7,10.7,74,0.00,,CLR,0.00,VWS V14.01,2013-02-10 16:01:00,
2013-02-10 11:06:00,23.7,17.3,29.85,West,281,0.0,3.6,76,0.00,,CLR,0.00,VWS V14.01,2013-02-10 16:06:00,
2013-02-10 11:11:00,24.3,18.1,29.85,North,11,0.0,0.0,77,0.00,,CLR,0.00,VWS V14.01,2013-02-10 16:11:00,
2013-02-10 11:16:00,24.6,17.8,29.85,WNW,294,9.8,9.8,75,0.00,,CLR,0.00,VWS V14.01,2013-02-10 16:16:00,
2013-02-10 11:21:00,25.0,17.2,29.85,North,8,5.4,5.4,72,0.00,,CLR,0.00,VWS V14.01,2013-02-10 16:21:00,
2013-02-10 11:26:00,25.0,16.9,29.85,North,357,6.3,6.3,71,0.00,,CLR,0.00,VWS V14.01,2013-02-10 16:26:00,
2013-02-10 11:31:00,25.3,14.5,29.85,NW,321,0.0,0.0,63,0.00,,CLR,0.00,VWS V14.01,2013-02-10 16:31:00,
2013-02-10 11:36:00,25.3,17.3,29.85,NW,317,7.2,7.2,71,0.00,,CLR,0.00,VWS V14.01,2013-02-10 16:36:00,
2013-02-10 11:41:00,25.5,18.4,29.85,NNE,24,7.2,7.2,74,0.00,,CLR,0.00,VWS V14.01,2013-02-10 16:41:00,
2013-02-10 11:46:00,25.3,18.9,29.85,NW,310,0.0,2.7,76,0.00,,CLR,0.00,VWS V14.01,2013-02-10 16:46:00,
2013-02-10 11:52:00,25.3,17.9,29.83,WNW,294,5.4,5.4,73,0.00,,CLR,0.00,VWS V14.01,2013-02-10 16:52:00,
2013-02-10 11:57:00,25.3,18.5,29.83,WNW,291,7.2,7.2,75,0.00,,CLR,0.00,VWS V14.01,2013-02-10 16:57:00,
2013-02-10 12:02:00,25.5,17.1,29.83,NNE,25,5.4,5.4,70,0.00,,CLR,0.00,VWS V14.01,2013-02-10 17:02:00,
2013-02-10 12:07:00,25.7,17.0,29.85,NW,317,8.1,8.1,69,0.00,,CLR,0.00,VWS V14.01,2013-02-10 17:07:00,
2013-02-10 12:12:00,25.9,16.8,29.85,WNW,286,0.0,0.0,68,0.00,,CLR,0.00,VWS V14.01,2013-02-10 17:12:00,
2013-02-10 12:17:00,26.1,17.0,29.83,West,278,7.2,7.2,68,0.00,,CLR,0.00,VWS V14.01,2013-02-10 17:17:00,
2013-02-10 12:22:00,26.2,17.5,29.83,West,278,9.8,9.8,69,0.00,,CLR,0.00,VWS V14.01,2013-02-10 17:22:00,
2013-02-10 12:27:00,26.6,18.8,29.83,NNE,15,5.4,5.4,72,0.00,,CLR,0.00,VWS V14.01,2013-02-10 17:27:00,
2013-02-10 12:33:00,27.0,19.5,29.83,NNE,13,10.7,10.7,73,0.00,,CLR,0.00,VWS V14.01,2013-02-10 17:33:00,
2013-02-10 12:38:00,27.3,20.1,29.83,WNW,295,0.0,3.1,74,0.00,,CLR,0.00,VWS V14.01,2013-02-10 17:38:00,
2013-02-10 12:43:00,27.7,21.1,29.83,NNW,329,5.4,5.4,76,0.00,,CLR,0.00,VWS V14.01,2013-02-10 17:43:00,
2013-02-10 12:48:00,28.4,21.8,29.83,NNE,23,0.0,0.0,76,0.00,,CLR,0.00,VWS V14.01,2013-02-10 17:48:00,
2013-02-10 12:53:00,29.3,22.7,29.83,North,2,0.0,0.0,76,0.00,,CLR,0.00,VWS V14.01,2013-02-10 17:53:00,
2013-02-10 12:58:00,29.5,14.9,29.83,WNW,293,4.5,4.5,54,0.00,,CLR,0.00,VWS V14.01,2013-02-10 17:58:00,
2013-02-10 13:03:00,29.7,20.1,29.83,NNE,19,0.0,0.0,67,0.00,,CLR,0.00,VWS V14.01,2013-02-10 18:03:00,
2013-02-10 13:08:00,29.8,20.9,29.83,NNW,335,0.0,2.7,69,0.00,,CLR,0.00,VWS V14.01,2013-02-10 18:08:00,
2013-02-10 13:14:00,30.0,21.8,29.83,NNW,346,0.0,0.0,71,0.00,,CLR,0.00,VWS V14.01,2013-02-10 18:14:00,
2013-02-10 13:19:00,29.8,22.6,29.83,NNW,335,0.0,2.2,74,0.00,,CLR,0.00,VWS V14.01,2013-02-10 18:19:00,
2013-02-10 13:24:00,29.8,22.9,29.83,NW,322,0.0,0.0,75,0.00,,CLR,0.00,VWS V14.01,2013-02-10 18:24:00,
2013-02-10 13:29:00,29.8,15.7,29.83,NW,318,0.0,0.0,55,0.00,,CLR,0.00,VWS V14.01,2013-02-10 18:29:00,
2013-02-10 13:34:00,30.4,20.0,29.83,West,266,0.0,0.0,65,0.00,,CLR,0.00,VWS V14.01,2013-02-10 18:34:00,
2013-02-10 13:39:00,31.1,18.5,29.83,NNW,335,5.4,5.4,59,0.00,,CLR,0.00,VWS V14.01,2013-02-10 18:39:00,
2013-02-10 13:44:00,31.6,19.0,29.83,NNW,343,0.0,0.0,59,0.00,,CLR,0.00,VWS V14.01,2013-02-10 18:44:00,
2013-02-10 13:49:00,32.2,21.8,29.83,NNE,29,0.0,0.0,65,0.00,,CLR,0.00,VWS V14.01,2013-02-10 18:49:00,
2013-02-10 13:54:00,32.2,23.2,29.83,NW,309,8.1,8.1,69,0.00,,CLR,0.00,VWS V14.01,2013-02-10 18:54:00,
2013-02-10 14:00:00,32.2,22.1,29.83,West,280,5.4,5.4,66,0.00,,CLR,0.00,VWS V14.01,2013-02-10 19:00:00,
2013-02-10 14:05:00,32.0,20.5,29.83,NW,326,0.0,5.4,62,0.00,,CLR,0.00,VWS V14.01,2013-02-10 19:05:00,
2013-02-10 14:10:00,32.0,21.9,29.83,ENE,75,0.0,4.0,66,0.00,,CLR,0.00,VWS V14.01,2013-02-10 19:10:00,
2013-02-10 14:15:00,32.0,23.0,29.83,NE,49,8.1,8.1,69,0.00,,CLR,0.00,VWS V14.01,2013-02-10 19:15:00,
2013-02-10 14:20:00,31.8,23.5,29.83,WNW,289,6.3,6.3,71,0.00,,CLR,0.00,VWS V14.01,2013-02-10 19:20:00,
2013-02-10 14:25:00,32.0,23.7,29.83,NNW,341,0.0,2.2,71,0.00,,CLR,0.00,VWS V14.01,2013-02-10 19:25:00,
2013-02-10 14:30:00,32.2,24.5,29.83,NNE,17,0.0,0.0,73,0.00,,CLR,0.00,VWS V14.01,2013-02-10 19:30:00,
2013-02-10 14:35:00,32.0,24.3,29.83,NNW,341,0.0,3.6,73,0.00,,CLR,0.00,VWS V14.01,2013-02-10 19:35:00,
2013-02-10 14:40:00,32.4,24.7,29.83,NW,323,0.0,0.0,73,0.00,,CLR,0.00,VWS V14.01,2013-02-10 19:40:00,
2013-02-10 14:46:00,33.1,25.0,29.83,NNE,27,5.4,5.4,72,0.00,,CLR,0.00,VWS V14.01,2013-02-10 19:46:00,
2013-02-10 14:51:00,32.7,24.7,29.80,NNE,20,6.3,6.3,72,0.00,,CLR,0.00,VWS V14.01,2013-02-10 19:51:00,
2013-02-10 14:56:00,32.2,23.9,29.80,NNW,330,0.0,0.0,71,0.00,,CLR,0.00,VWS V14.01,2013-02-10 19:56:00,
2013-02-10 15:01:00,31.8,21.0,29.80,NW,323,0.0,2.7,64,0.00,,CLR,0.00,VWS V14.01,2013-02-10 20:01:00,
2013-02-10 15:06:00,32.4,21.6,29.83,NNE,26,0.0,0.0,64,0.00,,CLR,0.00,VWS V14.01,2013-02-10 20:06:00,
2013-02-10 15:11:00,32.5,23.2,29.83,North,7,0.0,0.0,68,0.00,,CLR,0.00,VWS V14.01,2013-02-10 20:11:00,
2013-02-10 15:16:00,32.4,23.7,29.83,North,2,0.0,0.0,70,0.00,,CLR,0.00,VWS V14.01,2013-02-10 20:16:00,
2013-02-10 15:21:00,32.2,22.5,29.83,NW,325,0.0,0.0,67,0.00,,CLR,0.00,VWS V14.01,2013-02-10 20:21:00,
2013-02-10 15:26:00,32.4,19.6,29.83,WNW,298,0.0,0.0,59,0.00,,CLR,0.00,VWS V14.01,2013-02-10 20:26:00,
2013-02-10 15:31:00,32.2,20.6,29.83,WNW,303,0.0,0.0,62,0.00,,CLR,0.00,VWS V14.01,2013-02-10 20:31:00,
2013-02-10 15:37:00,31.6,21.6,29.83,NNW,330,0.0,0.0,66,0.00,,CLR,0.00,VWS V14.01,2013-02-10 20:37:00,
2013-02-10 15:42:00,31.1,22.1,29.83,NNW,337,0.0,0.0,69,0.00,,CLR,0.00,VWS V14.01,2013-02-10 20:42:00,
2013-02-10 15:47:00,30.7,22.5,29.83,North,353,0.0,0.0,71,0.00,,CLR,0.00,VWS V14.01,2013-02-10 20:47:00,
2013-02-10 15:52:00,30.6,23.0,29.83,NW,304,0.0,0.0,73,0.00,,CLR,0.00,VWS V14.01,2013-02-10 20:52:00,
2013-02-10 15:57:00,30.4,23.1,29.83,NW,304,0.0,0.0,74,0.00,,CLR,0.00,VWS V14.01,2013-02-10 20:57:00,
2013-02-10 16:02:00,30.2,23.2,29.83,NNW,337,0.0,0.0,75,0.00,,CLR,0.00,VWS V14.01,2013-02-10 21:02:00,
2013-02-10 16:07:00,30.0,23.1,29.83,NNW,348,0.0,0.0,75,0.00,,CLR,0.00,VWS V14.01,2013-02-10 21:07:00,
2013-02-10 16:12:00,29.8,20.6,29.83,NW,320,0.0,0.0,68,0.00,,CLR,0.00,VWS V14.01,2013-02-10 21:12:00,
2013-02-10 16:18:00,29.7,21.1,29.83,WNW,283,0.0,2.2,70,0.00,,CLR,0.00,VWS V14.01,2013-02-10 21:18:00,
2013-02-10 16:23:00,29.5,20.9,29.83,NNW,327,0.0,0.0,70,0.00,,CLR,0.00,VWS V14.01,2013-02-10 21:23:00,
2013-02-10 16:28:00,29.1,20.9,29.83,WNW,286,0.0,0.0,71,0.00,,CLR,0.00,VWS V14.01,2013-02-10 21:28:00,
2013-02-10 16:33:00,28.9,21.1,29.83,WNW,286,0.0,0.0,72,0.00,,CLR,0.00,VWS V14.01,2013-02-10 21:33:00,
2013-02-10 16:38:00,28.6,19.4,29.83,WSW,246,6.3,6.3,68,0.00,,CLR,0.00,VWS V14.01,2013-02-10 21:38:00,
2013-02-10 16:43:00,28.0,18.5,29.83,WSW,248,6.3,6.3,67,0.00,,CLR,0.00,VWS V14.01,2013-02-10 21:43:00,
2013-02-10 16:48:00,27.7,18.5,29.85,WSW,255,0.0,0.0,68,0.00,,CLR,0.00,VWS V14.01,2013-02-10 21:48:00,
2013-02-10 16:53:00,27.1,18.3,29.85,WSW,255,0.0,0.0,69,0.00,,CLR,0.00,VWS V14.01,2013-02-10 21:53:00,
2013-02-10 16:58:00,26.8,18.6,29.85,West,265,0.0,0.0,71,0.00,,CLR,0.00,VWS V14.01,2013-02-10 21:58:00,
2013-02-10 17:04:00,26.4,16.3,29.85,West,264,0.0,0.0,65,0.00,,CLR,0.00,VWS V14.01,2013-02-10 22:04:00,
2013-02-10 17:09:00,26.1,14.5,29.85,West,280,0.0,0.0,61,0.00,,CLR,0.00,VWS V14.01,2013-02-10 22:09:00,
2013-02-10 17:14:00,25.7,12.6,29.85,SW,226,0.0,2.7,57,0.00,,CLR,0.00,VWS V14.01,2013-02-10 22:14:00,
2013-02-10 17:19:00,25.3,11.9,29.85,WSW,256,0.0,0.0,56,0.00,,CLR,0.00,VWS V14.01,2013-02-10 22:19:00,
2013-02-10 17:24:00,24.6,11.6,29.85,West,280,0.0,0.0,57,0.00,,CLR,0.00,VWS V14.01,2013-02-10 22:24:00,
2013-02-10 17:29:00,24.1,11.1,29.85,WNW,283,0.0,0.0,57,0.00,,CLR,0.00,VWS V14.01,2013-02-10 22:29:00,
2013-02-10 17:34:00,23.5,9.4,29.88,WSW,239,5.4,5.4,54,0.00,,CLR,0.00,VWS V14.01,2013-02-10 22:34:00,
2013-02-10 17:39:00,22.6,8.5,29.88,WSW,258,0.0,0.0,54,0.00,,CLR,0.00,VWS V14.01,2013-02-10 22:39:00,
2013-02-10 17:44:00,22.1,8.4,29.88,WSW,258,0.0,0.0,55,0.00,,CLR,0.00,VWS V14.01,2013-02-10 22:44:00,
2013-02-10 17:49:00,21.6,7.9,29.88,West,265,0.0,0.0,55,0.00,,CLR,0.00,VWS V14.01,2013-02-10 22:49:00,
2013-02-10 17:54:00,21.4,8.5,29.88,West,261,0.0,0.0,57,0.00,,CLR,0.00,VWS V14.01,2013-02-10 22:54:00,
2013-02-10 18:00:00,21.7,9.2,29.88,West,261,0.0,0.0,58,0.00,,CLR,0.00,VWS V14.01,2013-02-10 23:00:00,
2013-02-10 18:05:00,21.6,7.9,29.88,WSW,252,0.0,0.0,55,0.00,,CLR,0.00,VWS V14.01,2013-02-10 23:05:00,
2013-02-10 18:10:00,21.2,8.0,29.88,WSW,248,0.0,0.0,56,0.00,,CLR,0.00,VWS V14.01,2013-02-10 23:10:00,
2013-02-10 18:15:00,20.7,8.2,29.88,WSW,248,0.0,0.0,58,0.00,,CLR,0.00,VWS V14.01,2013-02-10 23:15:00,
2013-02-10 18:20:00,21.2,9.9,29.85,WSW,248,0.0,0.0,61,0.00,,CLR,0.00,VWS V14.01,2013-02-10 23:20:00,
2013-02-10 18:25:00,21.0,7.0,29.85,WSW,239,0.0,0.0,54,0.00,,CLR,0.00,VWS V14.01,2013-02-10 23:25:00,
2013-02-10 18:30:00,20.1,6.9,29.85,WSW,239,0.0,0.0,56,0.00,,CLR,0.00,VWS V14.01,2013-02-10 23:30:00,
2013-02-10 18:35:00,19.9,6.8,29.85,WSW,239,0.0,0.0,56,0.00,,CLR,0.00,VWS V14.01,2013-02-10 23:35:00,
2013-02-10 18:40:00,19.4,5.9,29.85,WSW,239,0.0,0.0,55,0.00,,CLR,0.00,VWS V14.01,2013-02-10 23:40:00,
2013-02-10 18:46:00,18.5,5.4,29.85,WSW,239,0.0,0.0,56,0.00,,CLR,0.00,VWS V14.01,2013-02-10 23:46:00,
2013-02-10 18:51:00,17.6,5.3,29.88,WSW,239,0.0,0.0,58,0.00,,CLR,0.00,VWS V14.01,2013-02-10 23:51:00,
2013-02-10 18:56:00,17.4,5.6,29.88,WSW,239,0.0,0.0,59,0.00,,CLR,0.00,VWS V14.01,2013-02-10 23:56:00,
2013-02-10 19:01:00,17.8,5.5,29.88,WSW,239,0.0,0.0,58,0.00,,CLR,0.00,VWS V14.01,2013-02-11 00:01:00,
2013-02-10 19:06:00,17.8,5.1,29.88,WSW,239,0.0,0.0,57,0.00,,CLR,0.00,VWS V14.01,2013-02-11 00:06:00,
2013-02-10 19:11:00,18.1,5.5,29.88,WSW,239,0.0,0.0,57,0.00,,CLR,0.00,VWS V14.01,2013-02-11 00:11:00,
2013-02-10 19:16:00,18.9,7.7,29.88,WSW,239,0.0,0.0,61,0.00,,CLR,0.00,VWS V14.01,2013-02-11 00:16:00,
2013-02-10 19:21:00,19.4,7.8,29.88,WSW,239,0.0,0.0,60,0.00,,CLR,0.00,VWS V14.01,2013-02-11 00:21:00,
2013-02-10 19:27:00,19.2,6.9,29.88,WSW,239,0.0,0.0,58,0.00,,CLR,0.00,VWS V14.01,2013-02-11 00:27:00,
2013-02-10 19:32:00,19.4,8.5,29.88,WSW,239,0.0,0.0,62,0.00,,CLR,0.00,VWS V14.01,2013-02-11 00:32:00,
2013-02-10 19:37:00,19.2,5.7,29.88,WSW,239,0.0,0.0,55,0.00,,CLR,0.00,VWS V14.01,2013-02-11 00:37:00,
2013-02-10 19:42:00,17.8,4.0,29.88,WSW,239,0.0,0.0,54,0.00,,CLR,0.00,VWS V14.01,2013-02-11 00:42:00,
2013-02-10 19:47:00,17.6,5.0,29.88,WSW,239,0.0,0.0,57,0.00,,CLR,0.00,VWS V14.01,2013-02-11 00:47:00,
2013-02-10 19:52:00,18.5,6.9,29.88,WSW,239,0.0,0.0,60,0.00,,CLR,0.00,VWS V14.01,2013-02-11 00:52:00,
2013-02-10 19:57:00,19.2,8.4,29.88,WSW,239,0.0,0.0,62,0.00,,CLR,0.00,VWS V14.01,2013-02-11 00:57:00,
2013-02-10 20:02:00,18.9,5.8,29.88,WSW,239,0.0,0.0,56,0.00,,CLR,0.00,VWS V14.01,2013-02-11 01:02:00,
2013-02-10 20:07:00,17.6,4.2,29.88,WSW,239,0.0,0.0,55,0.00,,CLR,0.00,VWS V14.01,2013-02-11 01:07:00,
2013-02-10 20:12:00,16.2,2.8,29.88,WSW,239,0.0,0.0,55,0.00,,CLR,0.00,VWS V14.01,2013-02-11 01:12:00,
2013-02-10 20:18:00,15.1,1.8,29.88,WSW,239,0.0,0.0,55,0.00,,CLR,0.00,VWS V14.01,2013-02-11 01:18:00,
2013-02-10 20:23:00,14.4,1.2,29.88,WSW,239,0.0,0.0,55,0.00,,CLR,0.00,VWS V14.01,2013-02-11 01:23:00,
2013-02-10 20:28:00,13.6,1.2,29.88,WSW,239,0.0,0.0,57,0.00,,CLR,0.00,VWS V14.01,2013-02-11 01:28:00,
2013-02-10 20:33:00,13.1,0.7,29.88,WSW,239,0.0,0.0,57,0.00,,CLR,0.00,VWS V14.01,2013-02-11 01:33:00,
2013-02-10 20:38:00,12.7,0.4,29.88,WSW,239,0.0,0.0,57,0.00,,CLR,0.00,VWS V14.01,2013-02-11 01:38:00,
2013-02-10 20:43:00,12.9,0.6,29.88,WSW,239,0.0,0.0,57,0.00,,CLR,0.00,VWS V14.01,2013-02-11 01:43:00,
2013-02-10 20:48:00,13.3,0.9,29.88,WSW,239,0.0,0.0,57,0.00,,CLR,0.00,VWS V14.01,2013-02-11 01:48:00,
2013-02-10 20:53:00,13.5,1.1,29.88,WSW,239,0.0,0.0,57,0.00,,CLR,0.00,VWS V14.01,2013-02-11 01:53:00,
2013-02-10 20:58:00,13.6,1.2,29.88,WSW,239,0.0,0.0,57,0.00,,CLR,0.00,VWS V14.01,2013-02-11 01:58:00,
2013-02-10 21:03:00,13.8,1.4,29.88,WSW,239,0.0,0.0,57,0.00,,CLR,0.00,VWS V14.01,2013-02-11 02:03:00,
2013-02-10 21:08:00,13.6,1.2,29.88,WSW,239,0.0,0.0,57,0.00,,CLR,0.00,VWS V14.01,2013-02-11 02:08:00,
2013-02-10 21:14:00,13.8,1.4,29.88,WSW,239,0.0,0.0,57,0.00,,CLR,0.00,VWS V14.01,2013-02-11 02:14:00,
2013-02-10 21:19:00,14.0,2.0,29.85,WSW,239,0.0,0.0,58,0.00,,CLR,0.00,VWS V14.01,2013-02-11 02:19:00,
2013-02-10 21:24:00,14.2,1.8,29.85,WSW,239,0.0,0.0,57,0.00,,CLR,0.00,VWS V14.01,2013-02-11 02:24:00,
2013-02-10 21:29:00,14.2,1.8,29.85,WSW,239,0.0,0.0,57,0.00,,CLR,0.00,VWS V14.01,2013-02-11 02:29:00,
2013-02-10 21:34:00,14.2,2.1,29.85,WSW,239,0.0,0.0,58,0.00,,CLR,0.00,VWS V14.01,2013-02-11 02:34:00,
2013-02-10 21:39:00,14.7,3.4,29.85,WSW,239,0.0,0.0,60,0.00,,CLR,0.00,VWS V14.01,2013-02-11 02:39:00,
2013-02-10 21:44:00,15.3,4.9,29.85,WSW,239,0.0,0.0,63,0.00,,CLR,0.00,VWS V14.01,2013-02-11 02:44:00,
2013-02-10 21:49:00,15.3,3.9,29.85,WSW,239,0.0,0.0,60,0.00,,CLR,0.00,VWS V14.01,2013-02-11 02:49:00,
2013-02-10 21:54:00,14.0,1.2,29.85,WSW,239,0.0,0.0,56,0.00,,CLR,0.00,VWS V14.01,2013-02-11 02:54:00,
2013-02-10 21:59:00,12.7,0.0,29.85,WSW,239,0.0,0.0,56,0.00,,CLR,0.00,VWS V14.01,2013-02-11 02:59:00,
2013-02-10 22:04:00,12.7,0.0,29.85,WSW,239,0.0,0.0,56,0.00,,CLR,0.00,VWS V14.01,2013-02-11 03:04:00,
2013-02-10 22:09:00,13.5,0.7,29.85,WSW,239,0.0,0.0,56,0.00,,CLR,0.00,VWS V14.01,2013-02-11 03:09:00,
2013-02-10 22:15:00,13.8,1.0,29.85,WSW,239,0.0,0.0,56,0.00,,CLR,0.00,VWS V14.01,2013-02-11 03:15:00,
2013-02-10 22:20:00,14.0,4.4,29.85,WSW,239,0.0,0.0,65,0.00,,CLR,0.00,VWS V14.01,2013-02-11 03:20:00,
2013-02-10 22:25:00,13.8,3.6,29.85,WSW,239,0.0,0.0,63,0.00,,CLR,0.00,VWS V14.01,2013-02-11 03:25:00,
2013-02-10 22:30:00,13.6,3.4,29.85,WSW,239,0.0,0.0,63,0.00,,CLR,0.00,VWS V14.01,2013-02-11 03:30:00,
2013-02-10 22:35:00,12.6,2.4,29.85,WSW,239,0.0,0.0,63,0.00,,CLR,0.00,VWS V14.01,2013-02-11 03:35:00,
2013-02-10 22:40:00,11.3,1.2,29.85,WSW,239,0.0,0.0,63,0.00,,CLR,0.00,VWS V14.01,2013-02-11 03:40:00,
2013-02-10 22:45:00,10.6,0.5,29.85,WSW,239,0.0,0.0,63,0.00,,CLR,0.00,VWS V14.01,2013-02-11 03:45:00,
2013-02-10 22:50:00,10.9,0.8,29.85,WSW,239,0.0,0.0,63,0.00,,CLR,0.00,VWS V14.01,2013-02-11 03:50:00,
2013-02-10 22:55:00,11.3,1.2,29.85,WSW,239,0.0,0.0,63,0.00,,CLR,0.00,VWS V14.01,2013-02-11 03:55:00,
2013-02-10 23:00:00,11.1,1.0,29.85,WSW,239,0.0,0.0,63,0.00,,CLR,0.00,VWS V14.01,2013-02-11 04:00:00,
2013-02-10 23:05:00,10.8,0.7,29.85,WSW,239,0.0,0.0,63,0.00,,CLR,0.00,VWS V14.01,2013-02-11 04:05:00,
2013-02-10 23:10:00,10.4,0.3,29.85,WSW,239,0.0,0.0,63,0.00,,CLR,0.00,VWS V14.01,2013-02-11 04:10:00,
2013-02-10 23:15:00,10.2,0.1,29.85,WSW,239,0.0,0.0,63,0.00,,CLR,0.00,VWS V14.01,2013-02-11 04:15:00,
2013-02-10 23:20:00,9.7,-0.4,29.85,WSW,239,0.0,0.0,63,0.00,,CLR,0.00,VWS V14.01,2013-02-11 04:20:00,
2013-02-10 23:25:00,9.3,-0.7,29.85,WSW,239,0.0,0.0,63,0.00,,CLR,0.00,VWS V14.01,2013-02-11 04:25:00,
2013-02-10 23:30:00,9.1,-0.9,29.85,WSW,239,0.0,0.0,63,0.00,,CLR,0.00,VWS V14.01,2013-02-11 04:30:00,
2013-02-10 23:36:00,8.8,-1.2,29.85,WSW,239,0.0,0.0,63,0.00,,CLR,0.00,VWS V14.01,2013-02-11 04:36:00,
2013-02-10 23:41:00,8.8,-1.2,29.85,WSW,239,0.0,0.0,63,0.00,,CLR,0.00,VWS V14.01,2013-02-11 04:41:00,
2013-02-10 23:46:00,9.1,-0.9,29.85,WSW,239,0.0,0.0,63,0.00,,CLR,0.00,VWS V14.01,2013-02-11 04:46:00,
2013-02-10 23:51:00,9.5,-0.5,29.85,WSW,239,0.0,0.0,63,0.00,,CLR,0.00,VWS V14.01,2013-02-11 04:51:00,
2013-02-10 23:56:00,9.5,-0.5,29.85,WSW,239,0.0,0.0,63,0.00,,CLR,0.00,VWS V14.01,2013-02-11 04:56:00,